Location: Diguira
(13.1838°N, 4.9109°W)
Time: 17:15:29
(UTC+00:00)

Cosmos 1680 Rocket - Pass Details

Date: 18 September 2020
Orbit: 760 x 781 km, 74.1° (Epoch: 24 October)

Event Time Altitude Azimuth Distance (km) Brightness Sun altitude
Rises 19:01:39 0° 1° (N) 3,222 6.8 -11.4°
Reaches altitude 10° 19:04:13 10° 10° (N) 2,299 5.9 -12.0°
Maximum altitude 19:08:56 35° 75° (ENE) 1,233 4.1 -13.1°
Drops below altitude 10° 19:13:41 10° 140° (SE) 2,311 5.6 -14.3°
Enters shadow 19:13:47 10° 141° (SE) 2,348 5.6 -14.3°
